[Iaude] MPEC B52: 2024 BD1 [a=2.13,e=0.50,i=12.1,H=22.2]
    mpec at marsden.cfa.harvard.edu 
    mpec at marsden.cfa.harvard.edu
       
    Fri Jan 19 20:48:47 EST 2024
    
    
  
M.P.E.C. 2024-B52                              Issued 2024 January 20, 01:47 UT
     The Minor Planet Electronic Circulars contain information on unusual
         minor planets, routine data on comets and natural satellites,
         and occasional editorial announcements.  They are published
    on behalf of Division F of the International Astronomical Union by the
          Minor Planet Center, Smithsonian Astrophysical Observatory,
                          Cambridge, MA 02138, U.S.A.
			  
             Prepared using the Tamkin Foundation Computer Network
                              MPC at CFA.HARVARD.EDU
            URL https://www.minorplanetcenter.net/    ISSN 1523-6714
                                    2024 BD1                                    
Observations:
     K24B01D*1C2024 01 16.41430410 18 29.477-16 34 04.80         20.43GVEB052G96
     K24B01D 1C2024 01 16.41944710 18 31.255-16 34 03.86         20.33GVEB052G96
     K24B01D 1C2024 01 16.42458510 18 33.034-16 34 03.32         20.48GVEB052G96
     K24B01D 1C2024 01 16.42972710 18 34.844-16 34 02.53         20.91GVEB052G96
     K24B01D KC2024 01 16.47359510 18 50.260-16 33 56.02         20.44GVEB052V06
     K24B01D KC2024 01 16.47490210 18 50.688-16 33 56.09         20.84GVEB052V06
     K24B01D KC2024 01 16.48902210 18 55.688-16 33 53.64         20.41GVEB052V06
     K24B01D KC2024 01 16.49032810 18 56.124-16 33 53.42         20.93GVEB052V06
     K24B01D mC2024 01 17.39893310 24 35.478-16 31 05.63               VEB052V06
     K24B01D mC2024 01 17.39955610 24 35.640-16 31 06.20         20.32GVEB052V06
     K24B01D mC2024 01 17.40017710 24 35.946-16 31 06.46         20.62GVEB052V06
     K24B01D mC2024 01 17.40079610 24 36.162-16 31 06.53         20.15GVEB052V06
     K24B01D |C2024 01 18.19614010 29 41.880-16 26 41.90         20.5 GVEB052807
     K24B01D |C2024 01 18.20103010 29 43.720-16 26 40.60         20.2 GVEB052807
     K24B01D |C2024 01 18.20576010 29 45.490-16 26 39.30         20.3 GVEB052807
     K24B01D KB2024 01 20.05482810 42 03.27 -16 14 15.6          20.5 GXEB052I93
     K24B01D KB2024 01 20.06178810 42 06.01 -16 14 11.0          19.9 GXEB052I93
Observer details:
807 Cerro Tololo Observatory, La Serena.  Observers T. Linder, R. Holmes.
    0.61-m f/11 Ritchey-Chretien + CCD.
G96 Mt. Lemmon Survey.  Observer J. K. Hogan.  Measurers T. Beuden, V. F.
    Carvajal, D. Fay, J. B. Fazekas, D. C. Fuls, A. R. Gibbs, A. D. Grauer, H.
    Groeller, J. K. Hogan, R. A. Kowalski, S. M. Larson, G. J. Leonard, D.
    Rankin, R. L. Seaman, F. C. Shelly, K. W. Wierzchos.  1.5-m reflector +
    10K CCD.
I93 St Pardon de Conques.  Observer F. Losse.  0.40-m f/3.7 reflector + CMO.
V06 Catalina Sky Survey-Kuiper.  Observer G. J. Leonard.  Measurers T. Beuden,
    V. F. Carvajal, D. Fay, J. B. Fazekas, D. C. Fuls, A. R. Gibbs, A. D.
    Grauer, H. Groeller, J. K. Hogan, R. A. Kowalski, S. M. Larson, G. J.
    Leonard, D. Rankin, R. L. Seaman, F. C. Shelly, K. W. Wierzchos.  1.55-m
    reflector + 1K CCD.
Orbital elements:
2024 BD1                                                 Earth MOID = 0.0783 AU
Epoch 2023 Sept. 13.0 TT = JDT 2460200.5                MPC                     
M 310.13633              (2000.0)            P               Q                  
n   0.31782482     Peri.   10.94804     -0.90792053     -0.40105565             
a   2.1265594      Node   144.60993     +0.36691779     -0.90096736             
e   0.4997014      Incl.   12.14039     +0.20261204     -0.16556622             
P   3.10           H   22.21          G   0.15           U   9                  
Residuals in seconds of arc
240116 G96  0.4+  0.2-    240116 V06  0.2+  0.0     240118 807  0.0   0.0
240116 G96  0.1+  0.1+    240116 V06  0.1-  0.0     240118 807  0.0   0.0
240116 G96  0.2-  0.1-    240117 V06 (0.2-  1.2+)   240118 807  0.0   0.0
240116 G96  0.1-  0.0     240117 V06 (1.1-  0.5+)   240120 I93  0.2+  0.5-
240116 V06  0.3+  0.1+    240117 V06  0.0   0.1+    240120 I93  0.2-  0.5+
240116 V06  0.2-  0.2-    240117 V06  0.1-  0.1-
Ephemeris:
2024 BD1                 a,e,i = 2.13, 0.50, 12                  q = 1.0639
Date    TT    R. A. (2000) Decl.     Delta      r    Elong.  Phase     V
2023 12 21    08 31 00.6 -11 56 08   0.3800  1.2529   127.7    38.4    22.1
...
2024 01 05    09 20 56.9 -15 32 57   0.2748  1.1742   128.5    41.0    21.4
...
2024 01 13    09 58 51.3 -16 31 51   0.2289  1.1389   128.0    42.9    21.0
...
2024 01 19    10 34 55.5 -16 22 00   0.2003  1.1162   127.1    44.7    20.7
2024 01 20    10 41 39.6 -16 14 07   0.1961  1.1128   126.9    45.0    20.6
2024 01 21    10 48 36.2 -16 04 09   0.1921  1.1095   126.7    45.4    20.6
...
2024 01 27    11 34 26.2 -14 15 17   0.1720  1.0918   124.7    47.8    20.4
...
2024 02 04    12 43 01.4 -09 29 17   0.1578  1.0746   120.6    52.1    20.3
...
2024 02 19    14 39 01.7 +02 56 44   0.1707  1.0641   112.0    59.5    20.6
A. U. Tomatic                (C) Copyright 2024 MPC           M.P.E.C. 2024-B52
    
    
More information about the Iaude
mailing list